Погода в Ибердском

Россия / Рязанская область     53°51′10″N   40°13′49″E
темп.,
°C
ветер,
м/с
пор.,
м/с
влажн.,
%
обл.,
%
осадки,
мм/ч
давл.,
гПа
погр.,
м
22 апреля, чт
чт2200:00+5ю3591100 0.1 1015155
03:00+5юз3696100 0.5 1015294
06:00+5юз379468 0.1 1017363
09:00+7юз45766 0.1 1019641
12:00+11ююз575941 0.0 10191521
15:00+11юз576669 0.1 1019828
18:00+12ю486876 0.0 1019399
21:00+8ю4108033 0.0 1020183
23 апреля, пт
пт2300:00+7ю410805 0.0 1019179
03:00+7ю497964 0.0 1019141
06:00+8ю41177100 0.0 1019217
09:00+11ю41071100 0.0 1019393
12:00+15ю6851100 0.2 10182228
15:00+16ю584784 0.2 10172167
18:00+14ююв6105947 0.1 1016479
21:00+11ююв613725 0.1 1015298
24 апреля, сб
сб2400:00+9юв6137987 0.0 1013313
03:00+8ююв6158478 0.0 1010346
06:00+8ю61384100 0.0 1009613
09:00+5з4694100 1.6 1010543
12:00+5з4794100 4.6 1010663
15:00+8з5669100 5.1 10091200
18:00+8зсз3664100 1.1 1009514
21:00+5з397569 1.2 1010175
25 апреля, вс
вс2500:00+3зюз378190 0.0 1011130
03:00+2зюз498799 0.0 1011203
06:00+2зюз410875 0.0 1012378
09:00+5зюз696814 0.0 10121186
12:00+7зюз7956100 0.9 10131775
15:00+8зюз8114593 1.7 10132579
18:00+5зюз687295 0.6 1013979
21:00+3юз410701 0.6 1014231
26 апреля, пн
пн2600:00+2юз48813 0.0 1015175
03:00+1ююз36865 0.0 1014111
06:00+1ююз378756 0.0 1014230
09:00+5зюз57645 0.0 10141163
12:00+7зюз685196 0.5 10131927
15:00+8зюз6844100 0.7 10122218
18:00+7зюз575894 0.1 1012963
21:00+4юз3777100 0.3 1012212